User: anonymous   Login
Location: ??????
(41.3164°N, 22.6615°E)
Time: 02:23:25
(UTC+00:00)
Language:

CZ-2C R/B - Orbit

View from above orbital plane
View from above orbital plane
View from above satellite
View from above satellite

Ground track
Ground track

The orbit data is extracted from the following two-line orbital elements,

1 31114U 07010B   22020.52155014  .00000026  00000-0  30840-4 0  9994
2 31114  98.2286 203.9675 0059880  10.6159 349.6268 14.19387660765574
Epoch (UTC): 20 January 2022 12:31:01
Eccentricity: 0.0059880
inclination: 98.2286°
perigee height: 784 km
apogee height: 870 km
right ascension of ascending node: 203.9675°
argument of perigee: 10.6159°
revolutions per day: 14.19387660
mean anomaly at epoch: 349.6268°
orbit number at epoch: 76557

The dashed part of the orbit path shows where the satellite is in the earth's shadow,  

DLR